Location: Moscow
(55.7500°N, 37.5830°E)
Time: 14:53:13
(UTC+03:00)

Vanguard 1 - Pass Details

Date: 06 December 2021
Orbit: 652 x 3830 km, 34.2° (Epoch: 25 January)

Event Time Altitude Azimuth Distance (km) Brightness Sun altitude
Exits shadow 00:17:27 13° 106° (ESE) 6,202 13.9 -56.7°
Drops below altitude 10° 00:19:01 10° 103° (ESE) 6,388 14.1 -56.7°
Sets 00:24:07 0° 95° (E) 7,074 14.4 -56.7°
